Location: Newark
(31.5350°N, 35.0986°E)
Time: 03:23:27
(UTC+00:00)

Explorer 7 - Pass Details

Date: 27 October 2019
Orbit: 485 x 680 km, 50.3° (Epoch: 21 November)

Event Time Altitude Azimuth Distance (km) Brightness Sun altitude
Rises 03:55:27 0° 182° (S) 2,704 10.5 0.0°
Reaches altitude 10° 03:58:54 10° 152° (SSE) 1,768 10.1 0.8°
Maximum altitude 04:00:35 12° 127° (SE) 1,606 10.7 1.1°
Drops below altitude 10° 04:02:13 10° 102° (ESE) 1,732 11.9 1.4°
Sets 04:05:30 0° 72° (ENE) 2,586 11.3 2.1°
